Wind_Speed
29 27 25 24 23 22 21 20 20 19 19 20 20 21 21 21 21 22 23 24 25 27 28 29 30 31 32 33 34 35 35 36 37 37 38 39 39 40 40 40 40 40 40
30 28 26 25 24 23 22 21 20 20 20 20 21 21 22 22 22 23 24 25 26 27 28 29 30 32 33 34 35 35 36 37 38 39 40 40 40 41 41 41 41 41 41
31 29 27 26 24 23 22 22 21 21 21 21 22 22 23 23 24 24 25 26 27 28 29 30 32 33 34 35 35 36 37 38 39 40 41 41 42 42 42 42 42 43 43
31 29 28 26 25 24 23 22 22 22 22 22 22 23 24 24 25 25 26 27 28 29 30 31 33 34 35 35 36 38 39 40 41 42 42 43 43 44 44 44 44 44 44
32 30 29 28 26 25 24 23 23 23 23 23 23 24 25 25 25 26 26 28 29 30 31 32 33 35 36 37 38 39 40 41 42 43 44 44 45 45 46 46 46 46 46
32 31 30 29 27 26 25 24 24 24 24 24 24 25 26 26 26 27 27 29 30 31 32 33 35 36 37 38 39 40 41 42 44 44 45 46 47 47 48 48 48 48 48
33 32 31 29 28 27 26 26 25 25 25 25 25 26 27 27 27 28 29 30 31 32 33 34 35 36 37 39 40 41 43 44 45 46 47 48 48 49 49 49 50 50 51
34 33 31 30 29 28 27 27 26 26 26 26 26 27 27 27 28 29 30 31 32 34 35 35 36 37 38 39 41 42 44 45 46 47 48 49 50 51 51 51 52 52 53
36 34 32 31 30 29 28 27 27 27 27 27 27 27 28 28 29 30 31 32 33 34 35 36 37 38 39 41 42 44 45 46 47 49 50 51 52 52 52 53 54 55 55
37 35 33 32 32 31 30 29 28 28 28 28 27 28 29 30 30 31 32 33 34 35 36 37 39 39 40 42 43 45 47 47 48 50 51 52 53 54 54 55 56 57 57
37 36 34 33 33 32 30 30 29 29 29 29 29 29 30 31 32 32 32 33 34 36 37 38 39 40 41 43 45 46 48 48 50 51 53 53 54 55 57 58 59 59 60
37 36 35 34 33 32 31 30 30 30 30 29 29 30 30 31 32 33 33 34 35 36 38 39 40 41 42 44 46 47 48 49 51 53 54 55 56 57 59 60 60 61 62
37 36 36 34 34 33 32 32 31 30 30 30 30 30 31 32 33 34 34 35 36 37 38 40 41 42 43 45 46 48 49 50 52 54 55 56 57 59 60 61 62 62 62
38 38 37 36 35 34 34 33 32 31 31 31 31 32 32 33 34 35 35 36 37 38 39 40 42 43 44 46 47 48 50 51 53 55 55 56 58 60 61 62 62 62 62
40 39 38 37 36 35 34 33 32 32 32 32 32 33 33 34 35 36 37 37 38 38 39 40 42 43 45 46 48 49 51 52 54 56 56 58 60 61 62 62 62 61 60
41 40 39 38 36 35 35 34 33 33 33 33 33 33 34 34 36 37 38 38 39 39 39 41 43 44 46 47 49 50 51 53 55 56 57 59 61 61 62 62 61 59 58
41 40 39 38 37 36 35 35 34 34 33 33 34 34 34 35 36 37 38 38 39 40 40 41 43 45 46 48 49 50 52 54 56 57 58 60 61 61 61 61 59 58 58
42 40 40 39 38 36 36 35 35 35 34 34 34 34 34 36 37 38 38 39 39 40 41 42 44 45 47 48 49 51 53 55 56 57 59 60 60 61 60 59 58 58 57
42 41 40 39 38 37 36 36 36 35 34 34 34 34 35 37 37 38 38 38 40 41 42 43 44 46 47 48 49 51 54 56 56 58 59 59 60 60 59 58 58 57 57
44 42 41 40 38 37 37 37 36 35 35 35 35 35 36 37 37 37 38 39 40 41 42 43 44 46 47 49 49 52 54 55 56 57 58 59 59 59 59 58 58 57 57
45 43 41 41 40 39 38 37 36 36 36 36 35 35 36 37 37 38 38 39 40 41 42 43 45 46 47 49 50 53 53 54 55 57 58 59 59 59 58 58 57 57 57
46 45 43 42 41 40 38 37 37 37 36 36 35 36 37 37 37 38 39 40 41 42 43 44 45 46 48 49 51 52 53 54 55 57 57 58 58 58 57 57 57 57 57
47 45 45 44 42 41 39 38 37 36 37 36 36 36 36 36 37 38 39 40 41 41 42 43 45 46 48 49 51 52 53 55 56 57 57 57 58 57 56 56 56 57 57
48 46 45 44 43 41 40 39 39 38 37 35 35 36 36 36 37 38 39 40 41 41 42 43 45 46 48 50 51 52 53 55 56 57 57 57 57 56 56 56 57 57 56
47 46 45 44 43 42 40 40 39 37 36 35 35 36 36 37 38 38 39 40 40 41 42 42 44 46 48 49 50 52 53 55 55 56 57 57 56 55 56 57 57 56 54
47 46 45 44 43 42 41 39 38 37 37 36 36 36 36 36 37 38 39 40 40 40 41 43 44 46 47 49 50 52 53 54 54 55 57 56 55 55 55 56 56 54 52
Wind_Direction
233 235 239 242 246 251 255 260 267 272 275 279 283 288 292 295 298 303 306 309 313 316 318 319 320 321 321 321 322 323 323 323 322 321 321 321 320 319 318 317 316 315 314
233 235 238 242 246 251 255 260 266 271 275 279 283 287 292 294 297 301 304 308 312 315 317 318 319 320 320 321 321 322 322 322 322 321 321 321 320 319 318 316 315 314 313
232 235 238 242 246 251 255 259 265 270 274 278 282 286 291 294 296 299 303 307 310 313 315 316 318 319 319 320 320 321 321 321 321 321 321 320 319 318 317 316 315 314 313
232 235 238 241 246 250 255 259 265 270 273 277 282 286 291 293 295 299 303 306 309 312 314 315 316 317 318 318 319 320 320 320 320 320 320 319 318 318 317 315 314 313 312
233 235 238 241 246 250 255 260 265 269 273 277 281 286 290 292 295 298 302 305 308 311 312 314 315 316 316 317 318 319 319 319 319 319 319 319 318 317 316 315 314 313 312
233 235 238 242 246 251 256 260 264 269 273 276 281 285 289 292 295 298 301 305 307 310 311 312 314 314 315 316 317 318 318 318 318 319 319 318 318 317 316 315 314 312 311
233 236 238 242 246 251 255 260 264 268 272 276 280 284 288 291 294 298 301 304 306 309 310 311 312 313 314 315 316 317 317 318 318 318 318 318 317 316 315 315 314 313 311
233 236 239 243 247 251 255 260 264 267 271 275 278 283 287 290 293 297 300 303 305 307 309 310 311 312 313 314 315 316 317 317 318 318 318 317 317 316 315 315 314 313 312
233 237 240 244 247 251 255 260 263 266 270 274 277 282 286 289 292 296 299 302 305 306 307 309 311 312 313 314 314 315 316 317 317 317 317 317 317 316 316 315 314 313 312
234 237 240 244 247 251 255 259 263 266 269 273 277 281 285 289 292 295 298 301 303 305 306 308 310 312 313 313 314 315 316 316 316 317 317 317 317 316 316 315 314 313 312
234 237 241 244 248 251 254 258 262 265 268 272 276 280 285 288 291 294 298 301 303 304 306 307 309 311 312 313 313 314 315 316 316 317 317 317 316 316 316 315 314 313 312
234 237 240 244 247 250 253 257 261 264 268 272 276 280 284 288 291 294 298 300 302 303 305 306 309 311 312 313 314 315 316 316 317 317 317 316 316 317 316 315 314 314 313
234 237 240 243 247 250 254 257 260 263 267 272 276 280 284 287 291 294 297 299 301 302 304 306 308 310 311 313 314 315 316 317 317 317 317 316 317 317 317 317 316 315 314
234 237 239 242 246 250 253 257 260 263 267 272 276 280 284 287 291 294 296 298 300 301 303 305 308 310 311 313 314 316 317 317 317 317 317 317 318 318 318 318 318 317 316
233 236 239 242 246 249 252 255 259 263 267 271 276 280 284 287 290 293 295 297 299 301 303 305 307 309 311 313 315 316 317 317 317 317 317 317 318 318 319 319 319 318 318
234 237 240 243 246 249 252 255 258 262 266 271 275 280 283 286 290 292 295 297 299 301 303 305 307 309 311 313 315 316 317 318 318 318 317 318 319 319 320 320 320 320 320
233 237 240 243 246 249 252 255 258 262 266 270 274 278 282 286 290 292 294 296 298 301 303 306 308 310 312 313 315 316 317 318 318 318 318 319 319 320 321 321 321 321 321
233 236 239 242 245 248 252 255 258 261 265 269 273 278 282 286 289 291 294 296 298 301 304 306 308 310 312 314 315 317 318 319 319 319 320 320 321 321 321 321 321 321 322
233 235 238 242 244 247 251 254 257 260 264 269 273 278 282 286 289 291 294 296 298 301 304 306 308 310 312 314 315 317 319 319 320 321 321 321 321 322 322 322 322 322 322
233 234 237 241 244 247 251 253 256 260 264 269 273 278 282 286 288 291 294 296 299 302 304 306 309 311 312 314 315 317 319 320 321 322 322 322 322 323 323 323 322 322 321
233 235 236 239 242 246 251 253 256 260 264 268 273 278 282 285 288 291 294 297 299 301 304 306 308 310 312 313 315 317 319 321 322 322 322 322 323 322 322 322 322 322 322
233 235 236 239 243 246 250 253 256 260 264 267 272 277 282 285 287 290 293 296 299 301 303 306 307 309 312 313 315 318 320 321 322 323 323 323 323 323 322 322 323 323 323
233 235 237 240 242 245 249 253 256 259 263 266 271 276 281 284 287 290 293 296 300 302 304 306 308 310 312 314 316 318 320 321 323 324 323 324 324 323 323 323 323 324 324
233 235 238 240 242 245 248 252 256 260 263 267 272 277 280 283 287 290 293 296 300 302 304 305 308 310 312 315 317 319 320 322 323 324 324 325 324 324 323 323 324 325 325
232 234 237 239 241 244 248 252 255 258 262 268 273 277 280 283 287 290 293 296 299 301 304 306 309 311 314 316 318 319 321 323 324 324 325 325 325 324 324 324 325 326 326
232 234 237 240 241 244 248 251 253 257 262 267 272 276 279 282 286 289 292 296 299 301 304 307 310 312 315 317 318 320 322 323 324 324 325 325 325 325 325 325 326 327 327
Height
5820 5823 5825 5828 5830 5831 5833 5834 5834 5835 5835 5835 5834 5834 5833 5832 5831 5829 5827 5825 5823 5820 5818 5815 5811 5808 5804 5801 5797 5793 5789 5784 5780 5776 5771 5767 5762 5758 5753 5748 5744 5739 5735
5815 5818 5820 5823 5825 5826 5828 5829 5830 5831 5831 5831 5830 5829 5829 5827 5826 5825 5823 5821 5818 5816 5813 5810 5807 5803 5799 5796 5792 5787 5783 5779 5774 5770 5765 5760 5755 5751 5746 5741 5736 5731 5727
5809 5812 5815 5818 5820 5821 5823 5824 5825 5826 5826 5826 5825 5825 5824 5823 5821 5820 5818 5816 5813 5811 5808 5805 5801 5798 5794 5790 5786 5782 5777 5773 5768 5763 5759 5754 5749 5743 5739 5733 5728 5723 5719
5803 5807 5810 5812 5814 5816 5818 5819 5820 5821 5821 5821 5820 5820 5819 5818 5816 5815 5813 5811 5808 5805 5803 5799 5796 5792 5788 5784 5780 5776 5771 5767 5762 5757 5752 5746 5741 5736 5731 5726 5720 5715 5710
5798 5801 5804 5807 5809 5811 5813 5814 5815 5816 5816 5816 5815 5815 5814 5813 5811 5810 5808 5805 5803 5800 5797 5794 5790 5787 5783 5778 5774 5770 5765 5760 5755 5750 5744 5739 5733 5728 5722 5717 5712 5706 5701
5791 5795 5798 5801 5803 5805 5807 5808 5809 5810 5810 5810 5810 5810 5809 5807 5806 5804 5802 5800 5797 5794 5791 5788 5784 5781 5776 5772 5768 5763 5758 5753 5748 5742 5737 5731 5725 5720 5714 5708 5702 5696 5691
5785 5789 5792 5795 5797 5799 5801 5803 5804 5804 5805 5805 5805 5804 5803 5802 5800 5799 5796 5794 5792 5789 5785 5782 5778 5774 5770 5766 5761 5756 5751 5746 5740 5735 5729 5723 5717 5711 5704 5698 5692 5686 5680
5778 5782 5786 5789 5791 5793 5795 5797 5798 5798 5799 5799 5799 5798 5798 5797 5795 5793 5791 5788 5786 5783 5779 5776 5772 5768 5763 5759 5754 5749 5744 5738 5732 5727 5721 5714 5708 5701 5695 5688 5682 5675 5669
5771 5775 5779 5782 5785 5787 5789 5790 5791 5792 5793 5793 5793 5793 5792 5791 5789 5787 5785 5782 5779 5776 5773 5769 5765 5761 5756 5752 5747 5742 5736 5730 5724 5718 5712 5705 5698 5691 5685 5678 5671 5664 5657
5764 5768 5772 5775 5778 5780 5782 5784 5785 5786 5786 5787 5786 5786 5786 5784 5783 5781 5779 5776 5773 5770 5766 5762 5758 5754 5749 5745 5739 5734 5728 5722 5716 5709 5703 5695 5688 5681 5674 5667 5659 5652 5644
5757 5761 5765 5768 5771 5773 5775 5777 5778 5779 5780 5780 5780 5779 5779 5778 5776 5775 5773 5770 5766 5763 5759 5755 5751 5747 5742 5737 5732 5726 5720 5714 5707 5700 5693 5686 5678 5671 5663 5655 5647 5639 5631
5749 5754 5757 5761 5764 5766 5768 5770 5771 5772 5773 5773 5773 5773 5772 5771 5770 5768 5766 5763 5760 5756 5752 5748 5744 5739 5734 5729 5724 5718 5711 5705 5698 5691 5683 5676 5668 5660 5651 5642 5634 5625 5616
5742 5746 5750 5754 5757 5759 5761 5763 5764 5765 5766 5766 5766 5766 5765 5764 5763 5761 5758 5756 5753 5749 5745 5741 5736 5731 5726 5721 5715 5709 5703 5696 5689 5681 5673 5665 5657 5648 5639 5630 5620 5611 5602
5734 5738 5742 5746 5749 5751 5753 5755 5757 5758 5759 5759 5759 5759 5758 5757 5755 5753 5751 5748 5746 5742 5738 5733 5728 5723 5718 5713 5707 5700 5694 5686 5679 5671 5663 5655 5646 5637 5627 5618 5608 5598 5588
5726 5730 5734 5738 5741 5744 5746 5748 5750 5751 5751 5752 5752 5751 5750 5749 5748 5746 5743 5741 5738 5735 5731 5725 5721 5716 5710 5704 5698 5692 5684 5677 5669 5661 5652 5644 5635 5625 5616 5606 5595 5585 5575
5718 5722 5726 5730 5733 5736 5738 5741 5742 5743 5744 5744 5744 5744 5743 5741 5740 5738 5735 5733 5729 5726 5723 5718 5713 5708 5702 5695 5689 5683 5675 5667 5659 5650 5642 5633 5623 5613 5603 5593 5583 5573 5563
5709 5714 5718 5722 5725 5728 5730 5733 5735 5736 5736 5737 5737 5736 5735 5734 5732 5730 5728 5725 5721 5718 5714 5710 5704 5699 5693 5687 5680 5673 5666 5658 5649 5640 5631 5621 5612 5602 5592 5582 5572 5562 5552
5701 5705 5710 5713 5717 5720 5723 5725 5727 5728 5729 5729 5729 5728 5728 5726 5724 5722 5720 5717 5713 5709 5706 5701 5696 5691 5685 5678 5671 5664 5656 5648 5639 5630 5620 5610 5601 5591 5581 5571 5561 5551 5541
5692 5697 5701 5705 5708 5712 5714 5717 5719 5720 5721 5721 5721 5721 5720 5718 5717 5714 5712 5708 5705 5701 5697 5693 5688 5682 5676 5670 5662 5655 5646 5638 5628 5619 5610 5600 5590 5580 5570 5560 5550 5541 5531
5684 5688 5693 5697 5700 5703 5706 5708 5711 5712 5713 5713 5713 5713 5712 5710 5708 5706 5704 5700 5697 5693 5689 5685 5680 5674 5668 5661 5654 5646 5638 5628 5619 5609 5599 5590 5580 5570 5560 5551 5541 5531 5521
5675 5680 5684 5688 5691 5695 5698 5700 5702 5704 5705 5705 5705 5705 5704 5702 5700 5698 5695 5692 5689 5685 5681 5676 5671 5665 5659 5652 5645 5638 5629 5620 5611 5600 5590 5581 5571 5561 5551 5541 5531 5521 5511
5666 5671 5675 5679 5683 5687 5690 5692 5694 5696 5697 5697 5697 5697 5696 5694 5692 5690 5687 5684 5681 5677 5673 5668 5663 5657 5650 5644 5636 5628 5620 5612 5604 5595 5583 5572 5562 5551 5541 5531 5521 5511 5501
5656 5662 5666 5671 5675 5678 5681 5683 5685 5687 5688 5689 5689 5688 5687 5686 5684 5682 5679 5676 5672 5668 5664 5660 5654 5648 5642 5635 5628 5620 5610 5601 5592 5584 5574 5564 5552 5542 5531 5521 5512 5502 5491
5647 5652 5657 5662 5666 5669 5672 5675 5677 5678 5680 5680 5681 5680 5679 5678 5676 5673 5670 5667 5664 5660 5656 5651 5646 5639 5632 5625 5618 5610 5601 5592 5582 5573 5563 5555 5544 5533 5522 5512 5502 5492 5482
5638 5643 5648 5652 5657 5660 5663 5666 5668 5670 5671 5672 5672 5672 5671 5670 5667 5665 5662 5659 5656 5651 5646 5642 5636 5630 5623 5616 5609 5601 5592 5583 5574 5564 5554 5545 5535 5525 5514 5502 5492 5482 5472
5628 5634 5639 5643 5648 5652 5655 5657 5659 5661 5663 5664 5664 5664 5663 5661 5659 5656 5654 5651 5647 5643 5638 5633 5627 5621 5614 5607 5599 5591 5583 5574 5565 5557 5546 5536 5526 5516 5507 5495 5483 5473 5463